Fort Bragg, NC

12:57 AM EDT on June 28, 2017 (GMT -0400)
Simmons Army Air Field

Weather History for KFBG - June, 2014

Change the Weather History Date:

Sunday, June 8, 2014

  Actual Average Record
Temperature  
Mean Temperature 76 °F -  
Max Temperature 87 °F 83 °F 101 °F (2008)
Min Temperature 64 °F 65 °F 53 °F (1997)
Cooling Degree Days 10    
Growing Degree Days 26 (Base 50)    
Moisture  
Dew Point 63 °F    
Average Humidity 65    
Maximum Humidity 96    
Minimum Humidity 43    
Precipitation  
Precipitation 0.00 in - - ()
Sea Level Pressure  
Sea Level Pressure 29.96 in    
Wind  
Wind Speed 6 mph (SSE)    
Max Wind Speed 13 mph    
Max Gust Speed 17 mph    
Visibility 10 miles    
Events Rain    
Averages and records for this station are not official NWS values.
T = Trace of Precipitation, MM = Missing Value Source: NWS Daily Summary

Daily Weather History Graph

Daily Weather History Graph

Search for Another Location

Airport or City:

Trip Planner

Search our weather history database for the weather conditions in past years. The results will help you decide how hot, cold, wet, or windy it might be!

Date:

Astronomy

Jun. 08, 2014 Rise Set
Actual Time 6:01 AM EDT 8:28 PM EDT
Civil Twilight 5:31 AM EDT 8:58 PM EDT
Nautical Twilight 4:55 AM EDT 9:34 PM EDT
Astronomical Twilight 4:14 AM EDT 10:15 PM EDT
Moon 3:54 PM EDT (6/8) 2:42 AM EDT (6/8)
Length of Visible Light 15h 26m
Length of Day
14h 27m
Waxing Gibbous, 77% of the Moon is Illuminated
Jun 8
Waxing Gibbous
Jun 13
Full
Jun 19
Last Quarter
Jun 27
New
Jul 5
First Quarter

Hourly Weather History & Observations

Time (EDT) Temp. Heat Index Dew Point Humidity Pressure Visibility Wind Dir Wind Speed Gust Speed Precip Events Conditions
12:58 AM 73.0 °F - 63.7 °F 72% 30.01 in 10.0 mi SSW 5.8 mph - N/A   Clear
1:58 AM 72.0 °F - 64.2 °F 77% 29.99 in 10.0 mi Variable 2.3 mph - N/A   Mostly Cloudy
2:58 AM 69.6 °F - 63.9 °F 82% 29.97 in 10.0 mi Calm Calm - N/A   Clear
3:58 AM 69.3 °F - 63.9 °F 83% 29.97 in 10.0 mi South 2.3 mph - N/A   Clear
4:58 AM 66.9 °F - 63.9 °F 90% 29.98 in 10.0 mi Calm Calm - N/A   Clear
5:58 AM 64.8 °F - 63.3 °F 95% 29.99 in 10.0 mi Calm Calm - N/A   Clear
6:58 AM 64.4 °F - 63.3 °F 96% 29.99 in 10.0 mi NE 1.2 mph - N/A   Clear
7:58 AM 68.9 °F - 64.0 °F 84% 30.01 in 10.0 mi SE 4.6 mph - N/A   Clear
8:58 AM 75.0 °F - 65.1 °F 71% 30.01 in 10.0 mi SSE 5.8 mph - N/A   Clear
9:58 AM 78.6 °F - 63.5 °F 60% 29.99 in 10.0 mi South 8.1 mph - N/A   Clear
10:58 AM 80.4 °F 82.0 °F 63.7 °F 57% 29.99 in 10.0 mi Variable 6.9 mph - N/A   Clear
11:58 AM 83.5 °F 84.3 °F 62.6 °F 49% 29.99 in 10.0 mi ESE 9.2 mph - N/A   Clear
12:58 PM 85.5 °F 85.9 °F 62.1 °F 45% 29.95 in 10.0 mi SSE 12.7 mph - N/A   Clear
1:58 PM 87.4 °F 88.0 °F 62.2 °F 43% 29.94 in 10.0 mi SSE 9.2 mph - N/A   Clear
2:58 PM 84.6 °F 85.4 °F 62.6 °F 48% 29.94 in 10.0 mi South 8.1 mph - N/A   Partly Cloudy
3:58 PM 83.5 °F 84.7 °F 63.9 °F 51% 29.93 in 10.0 mi South 12.7 mph - N/A   Clear
4:36 PM 82.4 °F 83.4 °F 62.6 °F 51% 29.93 in 10.0 mi South 10.4 mph 17.3 mph N/A Rain Light Rain
4:58 PM 81.3 °F 82.5 °F 62.8 °F 53% 29.93 in 10.0 mi South 9.2 mph - 0.00 in Rain Light Rain
5:00 PM 82.4 °F 83.4 °F 62.6 °F 51% 29.92 in 10.0 mi South 11.5 mph - N/A   Clear
5:58 PM 81.1 °F 82.0 °F 61.3 °F 51% 29.91 in 10.0 mi South 12.7 mph 17.3 mph 0.00 in   Clear
6:58 PM 80.1 °F 81.1 °F 61.3 °F 53% 29.90 in 10.0 mi South 9.2 mph 17.3 mph N/A   Clear
7:58 PM 78.3 °F - 61.2 °F 56% 29.90 in 10.0 mi South 11.5 mph - N/A   Partly Cloudy
8:58 PM 76.8 °F - 61.3 °F 59% 29.91 in 10.0 mi South 8.1 mph - N/A   Scattered Clouds
9:58 PM 75.2 °F - 62.4 °F 64% 29.93 in 10.0 mi SE 5.8 mph - N/A   Partly Cloudy
10:58 PM 74.7 °F - 63.3 °F 68% 29.94 in 10.0 mi SSE 9.2 mph - N/A   Mostly Cloudy
11:58 PM 74.5 °F - 63.9 °F 69% 29.94 in 10.0 mi SSE 8.1 mph - N/A   Overcast